This is the latest recevied weather packets stored in our database for station/object KE4EST. If no packets are shown the sender has not sent any weather packets the latest 10 day(s).
| Time | Temp. | Humidity | Pressure | Rain* | Wind** | Luminosity | Snow |
|---|---|---|---|---|---|---|---|
| 1777674463 | 17.22° C | 50% | 1012.4 hPa | 0 mm | - | 48 W/m² | - |
| 1777674161 | 17.22° C | 49% | 1012.4 hPa | 0 mm | - | 69 W/m² | - |
| 1777673858 | 17.22° C | 52% | 1012.6 hPa | 0 mm | - | 74 W/m² | - |
| 1777673555 | 17.78° C | 48% | 1012.7 hPa | 0 mm | - | 82 W/m² | - |
| 1777673252 | 17.22° C | 47% | 1012.7 hPa | 0 mm | - | 111 W/m² | - |
| 1777672949 | 17.78° C | 50% | 1012.8 hPa | 0 mm | - | 101 W/m² | - |
| 1777672646 | 17.78° C | 51% | 1012.9 hPa | 0 mm | - | 155 W/m² | - |
| 1777672341 | 17.22° C | 53% | 1013 hPa | 0 mm | - | 243 W/m² | - |
| 1777672036 | 17.22° C | 54% | 1013.1 hPa | 0 mm | - | 127 W/m² | - |
| 1777671728 | 17.22° C | 49% | 1013.1 hPa | 0 mm | - | 81 W/m² | - |
| 1777671424 | 17.22° C | 50% | 1013.5 hPa | 0 mm | - | 94 W/m² | - |
| 1777671119 | 17.22° C | 49% | 1013.5 hPa | 0 mm | - | 91 W/m² | - |
| 1777670816 | 17.22° C | 55% | 1013.5 hPa | 0 mm | - | 116 W/m² | - |
| 1777670513 | 17.22° C | 50% | 1013.5 hPa | 0 mm | - | 103 W/m² | - |
| 1777670210 | 17.78° C | 51% | 1013.4 hPa | 0 mm | - | 109 W/m² | - |
| 1777669907 | 17.78° C | 50% | 1013.5 hPa | 0 mm | - | 108 W/m² | - |
| 1777669604 | 17.78° C | 53% | 1013.3 hPa | 0 mm | - | 119 W/m² | - |
| 1777669301 | 17.78° C | 52% | 1013.4 hPa | 0 mm | - | 132 W/m² | - |
| 1777668997 | 17.78° C | 53% | 1013.2 hPa | 0 mm | - | 156 W/m² | - |
| 1777668694 | 17.78° C | 52% | 1013.4 hPa | 0 mm | - | 138 W/m² | - |
| 1777668391 | 17.78° C | 51% | 1013.3 hPa | 0 mm | - | 139 W/m² | - |
| 1777668087 | 17.78° C | 53% | 1013.4 hPa | 0 mm | - | 155 W/m² | - |
| 1777667783 | 17.78° C | 53% | 1013.4 hPa | 0 mm | - | 168 W/m² | - |
| 1777667481 | 17.78° C | 51% | 1013.5 hPa | 0 mm | - | 169 W/m² | - |
| 1777667178 | 17.78° C | 50% | 1013.4 hPa | 0 mm | - | 161 W/m² | - |
* Rain latest hour (hover to see other rain measurements)
** Current wind speed in m/s (hover to see current wind gust speed)